Home   Weather   Emden   Past weeks

Flag for Germany Past Weather in Emden, Lower Saxony, Germany — Yesterday and Last 2 Weeks

Now
50 °F

Partly cloudy.


Feels Like: 42 °F
Forecast: 38 / 47 °F
Wind: 28 mph from West

Location: Wittmundhaven

Current Time: Feb 22, 2017 at 7:38:34 am

Latest Report: Feb 22, 2017 at 6:53 am


Visibility: 5 mi

Pressure: 29.47 "Hg

Humidity: 94%

Dew Point: 48 °F

Location of EmdenLocation

Past Weather in Emden — Graph

°F

Emden Temperature Yesterday

Maximum temperature yesterday: 48 °F (at 12:20 pm)
Minimum temperature yesterday: 39 °F (at 7:20 pm)
Average temperature yesterday: 44 °F

High & Low Weather Summary for the Past Weeks

 TemperatureHumidityPressure
High52 °F (Feb 15, 2:20 pm)100% (Feb 16, 6:20 am)30.57 "Hg (Feb 16, 6:20 am)
Low23 °F (Feb 10, 5:20 am)49% (Feb 14, 3:20 pm)29.50 "Hg (Feb 22, 4:20 am)
Average36 °F83%30.25 "Hg
* Reported Feb 7 5:20 am — Feb 22 5:20 am, Emden, Weather by CustomWeather, © 2017

Note: Actual official high and low records may vary slightly from our data, if they occured in-between our weather recording intervals... More about our weather records

Advertising

Emden Weather History for the Previous 24 Hours

Scroll right to see more
 ConditionsComfort  
Time TempWeatherWind HumidityBarometerVisibility
5:20 am
Wed, Feb 22
48 °FDrizzle. Fog.23 mph100%29.50 "Hg1 mi
4:20 am48 °FDrizzle. Fog.25 mph94%29.50 "Hg1 mi
3:20 am48 °FDrizzle. Fog.23 mph100%29.53 "Hg2 mi
2:20 am48 °FDrizzle. Fog.21 mph100%29.56 "Hg3 mi
1:20 am46 °FDrizzle. Fog.20 mph100%29.59 "Hg3 mi
12:20 am45 °FPassing clouds.18 mph93%29.65 "Hg4 mi
11:20 pm
Tue, Feb 21
45 °FPassing clouds.14 mph81%29.68 "HgN/A
10:20 pm43 °FPassing clouds.13 mph87%29.74 "HgN/A
9:20 pm43 °FPassing clouds.10 mph87%29.77 "HgN/A
8:34 pm41 °FPassing clouds.8 mph87%29.80 "HgN/A
7:20 pm39 °FPassing clouds.6 mph93%29.83 "HgN/A
6:20 pm43 °FPassing clouds.7 mph87%29.86 "HgN/A
5:20 pm45 °FPartly sunny.10 mph81%29.86 "HgN/A
4:20 pm46 °FScattered clouds.14 mph76%29.89 "HgN/A
3:20 pm46 °FScattered clouds.15 mph71%29.89 "HgN/A
2:20 pm46 °FPassing clouds.17 mph76%29.89 "HgN/A
1:20 pm48 °FPassing clouds.16 mph71%29.89 "HgN/A
12:20 pm48 °FScattered clouds.17 mph71%29.86 "HgN/A
11:20 am46 °FScattered clouds.16 mph82%29.86 "HgN/A
10:20 am46 °FScattered clouds.15 mph82%29.86 "HgN/A
9:20 am43 °FScattered clouds.14 mph93%29.83 "HgN/A
8:20 am43 °FPartly sunny.13 mph93%29.83 "HgN/A
7:20 am43 °FPassing clouds.14 mph93%29.80 "HgN/A
Weather by CustomWeather, © 2017

See weather overviewHow to use our weather pages